Time,TemperatureF,DewpointF,PressureIn,WindDirection,WindDirectionDegrees,WindSpeedMPH,WindSpeedGustMPH,Humidity,HourlyPrecipIn,Conditions,Clouds,dailyrainin,SoftwareType,DateUTC
2013-01-24 00:13:00,7.1,4.0,30.11,SSE,157,5.0,9.0,88,0.00,,,0.00,weatherlink.com 1.10,2013-01-24 05:13:00,
2013-01-24 00:28:00,7.2,4.0,30.10,SSE,165,6.0,8.0,88,0.00,,,0.00,weatherlink.com 1.10,2013-01-24 05:28:00,
2013-01-24 00:44:00,7.4,5.0,30.11,SSE,167,4.0,7.0,88,0.00,,,0.00,weatherlink.com 1.10,2013-01-24 05:44:00,
2013-01-24 00:59:00,7.6,5.0,30.10,South,182,5.0,7.0,88,0.00,,,0.00,weatherlink.com 1.10,2013-01-24 05:59:00,
2013-01-24 01:14:00,7.7,5.0,30.10,South,172,3.0,6.0,88,0.00,,,0.00,weatherlink.com 1.10,2013-01-24 06:14:00,
2013-01-24 01:28:00,7.9,5.0,30.10,SSW,213,7.0,7.0,88,0.00,,,0.00,weatherlink.com 1.10,2013-01-24 06:28:00,
2013-01-24 01:43:00,8.2,5.0,30.11,SSW,192,7.0,8.0,88,0.00,,,0.00,weatherlink.com 1.10,2013-01-24 06:43:00,
2013-01-24 01:59:00,8.3,6.0,30.11,SSW,199,3.0,6.0,88,0.00,,,0.00,weatherlink.com 1.10,2013-01-24 06:59:00,
2013-01-24 02:14:00,8.4,6.0,30.13,NNE,19,6.0,9.0,88,0.00,,,0.00,weatherlink.com 1.10,2013-01-24 07:14:00,
2013-01-24 02:29:00,7.9,5.0,30.13,NNE,30,2.0,7.0,88,0.00,,,0.00,weatherlink.com 1.10,2013-01-24 07:29:00,
2013-01-24 02:44:00,7.6,5.0,30.14,ENE,60,1.0,4.0,88,0.00,,,0.00,weatherlink.com 1.10,2013-01-24 07:44:00,
2013-01-24 02:59:00,7.8,5.0,30.15,ENE,60,0.0,0.0,89,0.00,,,0.00,weatherlink.com 1.10,2013-01-24 07:59:00,
2013-01-24 03:14:00,7.5,4.0,30.15,ENE,60,0.0,0.0,87,0.00,,,0.00,weatherlink.com 1.10,2013-01-24 08:14:00,
2013-01-24 03:29:00,6.7,4.0,30.15,ENE,60,0.0,0.0,87,0.00,,,0.00,weatherlink.com 1.10,2013-01-24 08:29:00,
2013-01-24 03:44:00,6.1,3.0,30.16,ENE,63,0.0,2.0,88,0.00,,,0.00,weatherlink.com 1.10,2013-01-24 08:44:00,
2013-01-24 03:59:00,5.8,3.0,30.17,ENE,63,0.0,2.0,88,0.00,,,0.00,weatherlink.com 1.10,2013-01-24 08:59:00,
2013-01-24 04:14:00,6.0,3.0,30.17,ENE,63,0.0,0.0,88,0.00,,,0.00,weatherlink.com 1.10,2013-01-24 09:14:00,
2013-01-24 04:29:00,6.8,4.0,30.19,ENE,63,0.0,0.0,89,0.00,,,0.00,weatherlink.com 1.10,2013-01-24 09:29:00,
2013-01-24 04:44:00,8.8,7.0,30.19,ENE,63,0.0,0.0,90,0.00,,,0.00,weatherlink.com 1.10,2013-01-24 09:44:00,
2013-01-24 05:00:00,6.1,3.0,30.20,ENE,63,0.0,1.0,86,0.00,,,0.00,weatherlink.com 1.10,2013-01-24 10:00:00,
2013-01-24 05:14:00,6.7,4.0,30.21,ENE,63,0.0,0.0,89,0.00,,,0.00,weatherlink.com 1.10,2013-01-24 10:14:00,
2013-01-24 05:30:00,7.7,5.0,30.23,NNE,19,1.0,2.0,89,0.00,,,0.00,weatherlink.com 1.10,2013-01-24 10:30:00,
2013-01-24 05:45:00,6.8,4.0,30.24,WNW,297,0.0,2.0,87,0.00,,,0.00,weatherlink.com 1.10,2013-01-24 10:45:00,
2013-01-24 06:00:00,6.3,4.0,30.25,SW,223,0.0,2.0,88,0.00,,,0.00,weatherlink.com 1.10,2013-01-24 11:00:00,
2013-01-24 06:15:00,5.9,3.0,30.26,SW,223,0.0,0.0,87,0.00,,,0.00,weatherlink.com 1.10,2013-01-24 11:15:00,
2013-01-24 06:30:00,7.2,5.0,30.27,SW,223,0.0,1.0,89,0.00,,,0.00,weatherlink.com 1.10,2013-01-24 11:30:00,
2013-01-24 06:45:00,8.0,6.0,30.29,SW,223,0.0,0.0,90,0.01,,,0.01,weatherlink.com 1.10,2013-01-24 11:45:00,
2013-01-24 07:00:00,6.9,4.0,30.30,SW,223,0.0,0.0,87,0.01,,,0.01,weatherlink.com 1.10,2013-01-24 12:00:00,
2013-01-24 07:15:00,6.0,3.0,30.31,SW,223,0.0,1.0,87,0.01,,,0.01,weatherlink.com 1.10,2013-01-24 12:15:00,
2013-01-24 07:30:00,6.2,4.0,30.32,SSW,205,1.0,2.0,89,0.01,,,0.01,weatherlink.com 1.10,2013-01-24 12:30:00,
2013-01-24 07:46:00,7.7,5.0,30.33,SSW,205,0.0,1.0,89,0.00,,,0.01,weatherlink.com 1.10,2013-01-24 12:46:00,
2013-01-24 08:00:00,8.6,6.0,30.34,WNW,284,2.0,2.0,89,0.00,,,0.01,weatherlink.com 1.10,2013-01-24 13:00:00,
2013-01-24 08:15:00,8.8,6.0,30.35,WSW,248,1.0,3.0,89,0.00,,,0.01,weatherlink.com 1.10,2013-01-24 13:15:00,
2013-01-24 08:31:00,9.6,7.0,30.36,NW,315,0.0,6.0,88,0.00,,,0.01,weatherlink.com 1.10,2013-01-24 13:31:00,
2013-01-24 08:45:00,9.7,7.0,30.37,NNW,345,1.0,4.0,87,0.00,,,0.01,weatherlink.com 1.10,2013-01-24 13:45:00,
2013-01-24 09:01:00,10.1,7.0,30.38,NNW,329,1.0,3.0,88,0.00,,,0.01,weatherlink.com 1.10,2013-01-24 14:01:00,
2013-01-24 09:16:00,10.4,7.0,30.39,NNW,333,0.0,3.0,87,0.00,,,0.01,weatherlink.com 1.10,2013-01-24 14:16:00,
2013-01-24 09:31:00,11.2,8.0,30.41,North,350,3.0,4.0,87,0.00,,,0.01,weatherlink.com 1.10,2013-01-24 14:31:00,
2013-01-24 09:46:00,11.8,8.0,30.42,NNW,348,4.0,11.0,86,0.00,,,0.01,weatherlink.com 1.10,2013-01-24 14:46:00,
2013-01-24 10:01:00,11.7,8.0,30.43,North,360,8.0,13.0,84,0.00,,,0.01,weatherlink.com 1.10,2013-01-24 15:01:00,
2013-01-24 10:16:00,11.9,8.0,30.44,North,351,11.0,15.0,85,0.00,,,0.01,weatherlink.com 1.10,2013-01-24 15:16:00,
2013-01-24 10:31:00,12.6,8.0,30.45,North,355,13.0,14.0,81,0.00,,,0.01,weatherlink.com 1.10,2013-01-24 15:31:00,
2013-01-24 10:46:00,12.5,8.0,30.47,NW,323,7.0,14.0,83,0.00,,,0.01,weatherlink.com 1.10,2013-01-24 15:46:00,
2013-01-24 11:01:00,12.6,8.0,30.48,North,5,10.0,14.0,81,0.00,,,0.01,weatherlink.com 1.10,2013-01-24 16:01:00,
2013-01-24 11:16:00,12.6,7.0,30.48,North,355,10.0,15.0,79,0.00,,,0.01,weatherlink.com 1.10,2013-01-24 16:16:00,
2013-01-24 11:31:00,12.3,7.0,30.49,NNW,345,7.0,12.0,80,0.00,,,0.01,weatherlink.com 1.10,2013-01-24 16:31:00,
2013-01-24 11:46:00,12.1,7.0,30.50,NNW,335,7.0,16.0,79,0.00,,,0.01,weatherlink.com 1.10,2013-01-24 16:46:00,
2013-01-24 12:01:00,12.2,7.0,30.50,North,355,8.0,15.0,78,0.00,,,0.01,weatherlink.com 1.10,2013-01-24 17:01:00,
2013-01-24 12:17:00,12.1,7.0,30.51,NNW,336,6.0,12.0,81,0.00,,,0.01,weatherlink.com 1.10,2013-01-24 17:17:00,
2013-01-24 12:32:00,11.8,6.0,30.51,North,350,11.0,15.0,78,0.00,,,0.01,weatherlink.com 1.10,2013-01-24 17:32:00,
2013-01-24 12:47:00,11.4,6.0,30.51,North,351,8.0,14.0,78,0.00,,,0.01,weatherlink.com 1.10,2013-01-24 17:47:00,
2013-01-24 13:02:00,11.5,5.0,30.50,NW,316,9.0,13.0,74,0.00,,,0.01,weatherlink.com 1.10,2013-01-24 18:02:00,
2013-01-24 13:17:00,11.4,5.0,30.51,NNW,345,6.0,12.0,74,0.00,,,0.01,weatherlink.com 1.10,2013-01-24 18:17:00,
2013-01-24 13:32:00,13.3,6.0,30.50,WNW,285,8.0,10.0,71,0.00,,,0.01,weatherlink.com 1.10,2013-01-24 18:32:00,
2013-01-24 13:47:00,11.9,4.0,30.50,North,349,11.0,15.0,70,0.00,,,0.01,weatherlink.com 1.10,2013-01-24 18:47:00,
2013-01-24 14:02:00,12.6,5.0,30.51,North,355,4.0,12.0,71,0.00,,,0.01,weatherlink.com 1.10,2013-01-24 19:02:00,
2013-01-24 14:17:00,13.5,5.0,30.51,NW,315,8.0,12.0,70,0.00,,,0.01,weatherlink.com 1.10,2013-01-24 19:17:00,
2013-01-24 14:32:00,13.6,5.0,30.52,North,5,9.0,12.0,67,0.00,,,0.01,weatherlink.com 1.10,2013-01-24 19:32:00,
2013-01-24 14:48:00,12.8,4.0,30.53,North,355,6.0,11.0,67,0.00,,,0.01,weatherlink.com 1.10,2013-01-24 19:48:00,
2013-01-24 15:02:00,13.4,4.0,30.53,NNW,348,9.0,12.0,67,0.00,,,0.01,weatherlink.com 1.10,2013-01-24 20:02:00,
2013-01-24 15:18:00,14.1,4.0,30.54,NW,323,7.0,13.0,65,0.00,,,0.01,weatherlink.com 1.10,2013-01-24 20:18:00,
2013-01-24 15:32:00,13.4,3.0,30.54,NW,321,6.0,14.0,62,0.00,,,0.01,weatherlink.com 1.10,2013-01-24 20:32:00,
2013-01-24 15:48:00,12.2,2.0,30.55,WNW,295,9.0,11.0,64,0.00,,,0.01,weatherlink.com 1.10,2013-01-24 20:48:00,
2013-01-24 16:03:00,11.8,3.0,30.55,WNW,296,4.0,12.0,67,0.00,,,0.01,weatherlink.com 1.10,2013-01-24 21:03:00,
2013-01-24 16:18:00,12.7,2.0,30.56,WNW,294,10.0,15.0,62,0.00,,,0.01,weatherlink.com 1.10,2013-01-24 21:18:00,
2013-01-24 16:33:00,12.3,1.0,30.56,North,5,3.0,14.0,61,0.00,,,0.01,weatherlink.com 1.10,2013-01-24 21:33:00,
2013-01-24 16:48:00,12.0,1.0,30.56,NNW,340,8.0,11.0,62,0.00,,,0.01,weatherlink.com 1.10,2013-01-24 21:48:00,
2013-01-24 17:03:00,11.2,1.0,30.57,NW,317,5.0,11.0,63,0.00,,,0.01,weatherlink.com 1.10,2013-01-24 22:03:00,
2013-01-24 17:33:00,9.8,1.0,30.56,NW,325,2.0,3.0,67,0.00,,,0.01,weatherlink.com 1.10,2013-01-24 22:33:00,
2013-01-24 17:48:00,9.3,1.0,30.57,NW,319,2.0,5.0,68,0.00,,,0.01,weatherlink.com 1.10,2013-01-24 22:48:00,
2013-01-24 18:03:00,8.9,1.0,30.57,WNW,300,2.0,4.0,70,0.00,,,0.01,weatherlink.com 1.10,2013-01-24 23:03:00,
2013-01-24 18:18:00,8.9,2.0,30.58,NW,311,3.0,6.0,73,0.00,,,0.01,weatherlink.com 1.10,2013-01-24 23:18:00,
2013-01-24 18:34:00,9.4,3.0,30.58,WNW,293,5.0,7.0,75,0.00,,,0.01,weatherlink.com 1.10,2013-01-24 23:34:00,
2013-01-24 18:49:00,9.7,3.0,30.59,WNW,289,3.0,6.0,74,0.00,,,0.01,weatherlink.com 1.10,2013-01-24 23:49:00,
2013-01-24 19:04:00,9.8,3.0,30.59,NNW,348,1.0,7.0,74,0.00,,,0.01,weatherlink.com 1.10,2013-01-25 00:04:00,
2013-01-24 19:19:00,9.4,3.0,30.59,NW,319,3.0,6.0,75,0.00,,,0.01,weatherlink.com 1.10,2013-01-25 00:19:00,
2013-01-24 19:34:00,8.9,3.0,30.59,NW,323,2.0,6.0,75,0.00,,,0.01,weatherlink.com 1.10,2013-01-25 00:34:00,
2013-01-24 19:49:00,8.9,3.0,30.58,WNW,298,1.0,4.0,76,0.00,,,0.01,weatherlink.com 1.10,2013-01-25 00:49:00,
2013-01-24 20:04:00,8.7,3.0,30.58,NW,306,1.0,2.0,77,0.00,,,0.01,weatherlink.com 1.10,2013-01-25 01:04:00,
2013-01-24 20:19:00,8.5,3.0,30.58,WNW,285,1.0,4.0,78,0.00,,,0.01,weatherlink.com 1.10,2013-01-25 01:19:00,
2013-01-24 20:34:00,7.6,3.0,30.57,WNW,284,0.0,2.0,80,0.00,,,0.01,weatherlink.com 1.10,2013-01-25 01:34:00,
2013-01-24 20:49:00,8.0,4.0,30.57,WNW,284,0.0,1.0,82,0.00,,,0.01,weatherlink.com 1.10,2013-01-25 01:49:00,
2013-01-24 21:04:00,8.5,4.0,30.57,WNW,302,2.0,2.0,82,0.00,,,0.01,weatherlink.com 1.10,2013-01-25 02:04:00,
2013-01-24 21:19:00,8.1,4.0,30.57,NW,322,2.0,3.0,82,0.00,,,0.01,weatherlink.com 1.10,2013-01-25 02:19:00,
2013-01-24 21:34:00,8.2,4.0,30.57,NNW,338,0.0,3.0,83,0.00,,,0.01,weatherlink.com 1.10,2013-01-25 02:34:00,
2013-01-24 21:49:00,8.3,5.0,30.55,NNW,337,0.0,0.0,86,0.00,,,0.01,weatherlink.com 1.10,2013-01-25 02:49:00,
2013-01-24 22:04:00,7.7,4.0,30.55,NNW,337,0.0,1.0,86,0.00,,,0.01,weatherlink.com 1.10,2013-01-25 03:04:00,
2013-01-24 22:20:00,8.1,4.0,30.56,NNW,337,0.0,1.0,84,0.00,,,0.01,weatherlink.com 1.10,2013-01-25 03:20:00,
2013-01-24 22:35:00,8.9,6.0,30.56,NNW,337,0.0,1.0,88,0.00,,,0.01,weatherlink.com 1.10,2013-01-25 03:35:00,
2013-01-24 22:50:00,8.5,5.0,30.55,NNW,337,0.0,2.0,85,0.00,,,0.01,weatherlink.com 1.10,2013-01-25 03:50:00,
2013-01-24 23:20:00,5.6,2.0,30.55,NNW,337,1.0,1.0,86,0.00,,,0.01,weatherlink.com 1.10,2013-01-25 04:20:00,
2013-01-24 23:35:00,5.5,3.0,30.57,NNW,337,1.0,2.0,88,0.00,,,0.01,weatherlink.com 1.10,2013-01-25 04:35:00,
2013-01-24 23:50:00,4.6,1.0,30.56,NNW,337,1.0,2.0,86,0.00,,,0.01,weatherlink.com 1.10,2013-01-25 04:50:00,